Regional Weather Roundup
Issued by NWS

Home | Current Version | Previous Version | Text Only | Print | Product List | Glossary Off
Versions: 1 2 3 4 5 6 7 8 9 10 11 12 13 14 15 16 17 18 19 20 21 22 23 24 25 26 27 28 29 30 31 32 33 34 35 36 37 38 39 40 41 42 43 44 45 46 47 48 49 50

000
ASUS43 KDMX 181206
RWRIA

WEATHER ROUNDUP FOR IOWA
NATIONAL WEATHER SERVICE DES MOINES IA
700 AM CDT WED APR 18 2018

NOTE: "FAIR" INDICATES FEW OR NO CLOUDS BELOW 12,000 FEET WITH NO
SIGNIFICANT WEATHER AND/OR OBSTRUCTIONS TO VISIBILITY.

* - THESE STATIONS ARE NOT NWS STATIONS...THUS NOT UNDER NWS
QUALITY CONTROL.  THEY ALSO DO NOT REPORT WEATHER SUCH
AS PRECIPITATION OR FOG.

IAZ001>003-012>014-020>022-031>034-043>046-181300-
   NORTHWEST IOWA

CITY           SKY/WX    TMP DP  RH WIND       PRES   REMARKS
CARROLL *      MIX PCPN  30  30 100 N16       29.81R WCI  19
CHEROKEE *     HVY SNOW  29  29 100 N14       29.86S VSB 1/4 WCI  19
DENISON *      MIX PCPN  30  30 100 NE14G20   29.81R VSB 3/4 WCI  20
LE MARS *      HVY SNOW  30  30 100 N12       29.89R VSB<1/4 WCI  21
ORANGE CITY *  SNOW      30  30 100 NE8G16    29.88R VSB 1/2 WCI  23
SHELDON *      MIX PCPN  30  30 100 N17       29.87F VSB 1/4 WCI  18
SIOUX CITY     SNOW      31  28  89 N13       29.88R VSB 1/2 WCI  21
6HR MIN TEMP:  31; 6HR MAX TEMP:  34; 6HR PCP:  0.23;

SPENCER        LGT SNOW  29  27  92 N12       29.89R VSB 3/4 WCI  19
6HR MIN TEMP:  29; 6HR MAX TEMP:  32; 6HR PCP:  0.06;

STORM LAKE *   SNOW      28  28 100 N17       29.83S VSB<1/4 WCI  16
$$

IAZ055>058-069>071-079>083-090>094-181300-
   SOUTHWEST IOWA

CITY           SKY/WX    TMP DP  RH WIND       PRES   REMARKS
ATLANTIC *     CLOUDY    32  32 100 NE20G28   29.77R FOG     WCI  20
AUDUBON *      MIX PCPN  30  28  93 N16G22    29.79R WCI  19
CLARINDA *     CLOUDY    36  34  93 N18       29.76R WCI  25
COUNCIL BLFS * CLOUDY    32  32 100 NE16G23   29.77R WCI  21
CRESTON *      LGT RAIN  34  32  93 N15       29.72S WCI  24
HARLAN  *      LGT RAIN  32  32 100 NE15G24   29.80R WCI  22
LAMONI         CLOUDY    39  31  72 NW13      29.69R WCI  31
6HR MIN TEMP:  39; 6HR MAX TEMP:  44;

RED OAK *      CLOUDY    34  34 100 N21       29.76R WCI  22
SHENANDOAH *   CLOUDY    36  34  93 N17       29.77R WCI  25
$$

IAZ047>049-059>061-072>074-084-181300-
   CENTRAL IOWA

CITY           SKY/WX    TMP DP  RH WIND       PRES   REMARKS
AMES           MIX PCPN  32  27  81 N12       29.80R WCI  23
6HR MIN TEMP:  32; 6HR MAX TEMP:  36; 6HR PCP:  0.09;

ANKENY *       LGT RAIN  34  27  75 N10       29.79R WCI  26
BOONE *        RAIN      32  28  86 N15       29.79R VSB 1   WCI  22
CHARITON *     CLOUDY    36  30  80 NW7G20    29.70R WCI  30
DES MOINES     LGT RAIN  35  26  69 NE13      29.77R WCI  26
6HR MIN TEMP:  35; 6HR MAX TEMP:  40; 6HR PCP:  0.01;

GRINNELL*      CLOUDY    33  26  75 NE9       29.75R WCI  25
KNOXVILLE *    CLOUDY    36  25  64 N8G18     29.71R WCI  29
MARSHALLTOWN   FRZ RAIN  32  27  81 NE10      29.78R WCI  24
6HR MIN TEMP:  32; 6HR MAX TEMP:  33; 6HR PCP:  0.05;

NEWTON *       CLOUDY    34  25  69 N12       29.76R WCI  25
PELLA *        CLOUDY    36  26  66 N6G18     29.71R WCI  31
PERRY *        RAIN      31  29  92 N15       29.80R WCI  21
$$

IAZ004>006-015-016-023>025-035-036-181300-
   NORTH CENTRAL IOWA

CITY           SKY/WX    TMP DP  RH WIND       PRES   REMARKS
ALGONA *       CLOUDY    30  27  86 N8        29.86R WCI  23
CLARION *      CLOUDY    30  27  86 N12       29.85R FOG     WCI  21
ESTHERVILLE    SNOW      27  25  92 N12       29.89R VSB 1/2 WCI  17
6HR MIN TEMP:  25; 6HR MAX TEMP:  29; 6HR PCP:  0.01;

FORT DODGE *   LGT SNOW  30  27  88 N9        29.83S FOG     WCI  22
MASON CITY     FLURRIES  30  24  78 NE10      29.85R WCI  21
6HR MIN TEMP:  29; 6HR MAX TEMP:  30; 6HR PCP: TRACE;

FOREST CITY *  CLOUDY    32  27  80 N6        29.85R WCI  26
WEBSTER CITY * RAIN      32  28  86 N9        29.81R WCI  24
IOWA FALLS *   FLURRIES  32  28  86 N5        29.82R WCI  27
$$

IAZ007>011-017>019-026>030-037>042-050>054-066-181300-
   NORTHEAST IOWA

CITY           SKY/WX    TMP DP  RH WIND       PRES   REMARKS
CEDAR RAPIDS   CLOUDY    34  23  64 E20G39    29.69F WCI  23
6HR MIN TEMP:  33; 6HR MAX TEMP:  34;

CHARLES CITY * CLOUDY    32  27  80 NE16G23   29.79F WCI  21
CLINTON *      CLOUDY    33  25  72 E20G26    29.77R WCI  21
DECORAH *      FAIR      30  23  74 NE13      29.80R WCI  20
DUBUQUE        CLOUDY    31  21  66 E16       29.77R WCI  20
6HR MIN TEMP:  29; 6HR MAX TEMP:  31;

MONTICELLO *   CLOUDY    32  23  69 E12G20    29.73F WCI  23
OELWEIN *      CLOUDY    32  28  86 E16G23    29.75R WCI  21
WATERLOO       FRZ RAIN  31  27  85 NE9       29.80R FOG     WCI  23
6HR MIN TEMP:  29; 6HR MAX TEMP:  32; 6HR PCP:  0.06;

$$

IAZ064-065-067-068-078-181300-
   EAST CENTRAL IOWA

CITY           SKY/WX    TMP DP  RH WIND       PRES   REMARKS
DAVENPORT      CLOUDY    32  24  72 E18       29.76F WCI  20
6HR MIN TEMP:  31; 6HR MAX TEMP:  32;

IOWA CITY      CLOUDY    34  23  64 E17G24    29.71F WCI  23
6HR MIN TEMP:  33; 6HR MAX TEMP:  36;

MT. PLEASANT * PTCLDY    32  27  80 E21       29.66F WCI  20
MUSCATINE *    CLOUDY    36  23  60 E17G23    29.72F WCI  25
QUAD CITIES    MOCLDY    33  25  72 E22G28    29.74F WCI  21
6HR MIN TEMP:  32; 6HR MAX TEMP:  35;

$$

IAZ062-063-075>077-085>089-095>099-181300-
   SOUTHEAST IOWA

CITY           SKY/WX    TMP DP  RH WIND       PRES   REMARKS
BURLINGTON     CLOUDY    35  25  66 E17G25    29.67F WCI  25
6HR MIN TEMP:  34; 6HR MAX TEMP:  38;

FAIRFIELD *    MOCLDY    36  25  64 E21       29.64S WCI  24
FORT MADISON * CLEAR     36  28  75 E15G28    29.66F WCI  26
KEOKUK *       MOCLDY    37  28  70 E23G30    29.64F WCI  26
OSKALOOSA *    CLOUDY    34  26  74 E18G28    29.65R WCI  23
CENTERVILLE *  LGT RAIN  37  34  87 E15G22    29.62R WCI  28
OTTUMWA        CLOUDY    36  26  67 E18G26    29.64R WCI  26
6HR MIN TEMP:  35; 6HR MAX TEMP:  38;

WASHINGTON *   CLOUDY    34  27  75 E29G35    29.67F WCI  20
$$

ABBREVIATIONS USED IN REMARKS
   TC - TEMPERATURES IN CELSIUS
  WCI - WIND CHILL INDEX
   HX - HEAT INDEX
  VSB - VISIBILITY
$$





USA.gov is the U.S. government's official web portal to all federal, state and local government web resources and services.